Ephrata, WA

2:37 PM PDT on June 20, 2018 (GMT -0700)
Ephrata Municipal

Weather History for KEPH - April, 2009

Change the Weather History Date:

Friday, April 24, 2009

  Actual Average Record
Temperature  
Mean Temperature 50 °F 52 °F  
Max Temperature 61 °F 65 °F 94 °F (1977)
Min Temperature 39 °F 40 °F 27 °F (2008)
Degree Days  
Heating Degree Days 15 13  
Month to date heating degree days 344 369  
Since 1 July heating degree days 5499 5626  
Cooling Degree Days 0 0  
Month to date cooling degree days 0 0  
Year to date cooling degree days 0 0  
Moisture  
Dew Point 17 °F    
Average Humidity 32    
Maximum Humidity 50    
Minimum Humidity 14    
Precipitation  
Precipitation 0.00 in 0.01 in 0.18 in (1983)
Month to date precipitation 0.14 0.40  
Year to date precipitation 1.60 2.73  
Sea Level Pressure  
Sea Level Pressure 30.00 in    
Wind  
Wind Speed 11 mph (WSW)    
Max Wind Speed 21 mph    
Max Gust Speed 24 mph    
Visibility 10 miles    
Events      
T = Trace of Precipitation, MM = Missing Value Source: NWS Daily Summary

Daily Weather History Graph

Daily Weather History Graph

Search for Another Location

Airport or City:

Astronomy

Apr. 24, 2009 Rise Set
Actual Time 5:52 AM PDT 8:00 PM PDT
Civil Twilight 5:19 AM PDT 8:33 PM PDT
Nautical Twilight 4:38 AM PDT 9:14 PM PDT
Astronomical Twilight 3:52 AM PDT 10:01 PM PDT
Moon 5:11 AM PDT (4/24) 8:10 PM PDT (4/24)
Length of Visible Light 15h 13m
Length of Day
14h 07m
Waning Crescent, 0% of the Moon is Illuminated
Apr 24
Waning Crescent
Apr 24
New
May 1
First Quarter
May 8
Full
May 17
Last Quarter

Hourly Weather History & Observations

Time (PDT) Temp. Windchill Dew Point Humidity Pressure Visibility Wind Dir Wind Speed Gust Speed Precip Events Conditions
12:53 AM 39.9 °F 32.1 °F 23.0 °F 51% 30.01 in 10.0 mi WNW 13.8 mph - N/A   Clear
1:53 AM 39.9 °F 32.1 °F 21.9 °F 49% 30.01 in 10.0 mi WNW 13.8 mph - N/A   Clear
2:53 AM 39.0 °F 30.6 °F 21.0 °F 49% 30.01 in 10.0 mi WNW 15.0 mph - N/A   Clear
3:53 AM 39.9 °F 31.8 °F 19.0 °F 43% 30.02 in 10.0 mi WNW 15.0 mph - N/A   Clear
5:53 AM 39.0 °F 29.6 °F 19.9 °F 46% 30.03 in 10.0 mi WNW 18.4 mph - N/A   Clear
6:53 AM 39.9 °F 31.1 °F 19.9 °F 45% 30.03 in 10.0 mi NW 17.3 mph - N/A   Clear
7:53 AM 45.0 °F 38.9 °F 19.9 °F 37% 30.06 in 10.0 mi NW 12.7 mph - N/A   Clear
8:53 AM 50.0 °F - 17.1 °F 27% 30.05 in 10.0 mi WNW 5.8 mph - N/A   Clear
9:53 AM 53.1 °F - 17.1 °F 24% 30.05 in 10.0 mi South 8.1 mph - N/A   Clear
10:53 AM 55.0 °F - 15.1 °F 21% 30.05 in 10.0 mi Variable 3.5 mph - N/A   Clear
11:53 AM 55.9 °F - 10.0 °F 16% 30.04 in 10.0 mi WSW 11.5 mph 19.6 mph N/A   Clear
12:53 PM 57.0 °F - 12.0 °F 17% 30.03 in 10.0 mi WSW 11.5 mph 21.9 mph N/A   Clear
1:53 PM 57.9 °F - 10.9 °F 16% 30.01 in 10.0 mi SSW 13.8 mph 19.6 mph N/A   Clear
2:53 PM 60.1 °F - 10.0 °F 14% 30.00 in 10.0 mi SW 18.4 mph 21.9 mph N/A   Clear
3:53 PM 60.1 °F - 10.0 °F 14% 29.98 in 10.0 mi SSW 11.5 mph 20.7 mph N/A   Clear
4:53 PM 60.1 °F - 12.0 °F 15% 29.97 in 10.0 mi SSW 10.4 mph 18.4 mph N/A   Clear
5:53 PM 60.1 °F - 12.0 °F 15% 29.96 in 10.0 mi SSW 9.2 mph - N/A   Clear
6:53 PM 57.9 °F - 14.0 °F 18% 29.95 in 10.0 mi South 15.0 mph - N/A   Clear
7:53 PM 53.1 °F - 19.0 °F 26% 29.94 in 10.0 mi South 8.1 mph - N/A   Clear
8:53 PM 48.9 °F - 21.9 °F 35% 29.94 in 10.0 mi South 5.8 mph - N/A   Clear
9:53 PM 48.0 °F - 19.9 °F 33% 29.94 in 10.0 mi NNW 8.1 mph - N/A   Clear
10:53 PM 50.0 °F - 19.0 °F 29% 29.93 in 10.0 mi Variable 4.6 mph - N/A   Clear
11:53 PM 51.1 °F - 19.9 °F 29% 29.92 in 10.0 mi WNW 8.1 mph - N/A   Clear